{"data":{"norad_id":63779,"epoch":"2026-09-20T09:13:14.060928Z","epoch_age_seconds":159840,"freshness":"FRESH","line1":"1 63779U 25091E   26263.38419052  .00007894  00000+0  29605-3 0  9992","line2":"2 63779  43.0002  33.3942 0001361 274.4227  85.6469 15.27583694 78672","mean_motion":15.27583694,"eccentricity":0.0001361,"inclination_deg":43.0002,"raan_deg":33.3942,"arg_perigee_deg":274.4227,"mean_anomaly_deg":85.6469,"bstar":0.00029605,"rev_number":7867,"period_min":94.266520757978,"perigee_km":482.10422897478,"apogee_km":483.97184081928,"semimajor_km":6861.175034897,"source":"CELESTRAK","updated_at":"2026-09-21T09:00:35.098532Z"}}